Regional Weather Roundup
Issued by NWS

Home | Current Version | Previous Version | Graphics & Text | Print | Product List | Glossary On
Versions: 1 2 3 4 5 6 7 8 9 10 11 12 13 14 15 16 17 18 19 20 21 22 23 24 25 26 27 28 29 30 31 32 33 34 35 36 37 38 39 40 41 42 43 44 45 46 47 48 49 50
000
ASUS43 KBIS 011910
RWRND

NORTH DAKOTA REGIONAL WEATHER ROUNDUP
NATIONAL WEATHER SERVICE BISMARCK ND
200 PM CDT MON JUN 01 2015

NOTE: "FAIR" INDICATES FEW OR NO CLOUDS BELOW 12,000 FEET WITH NO
SIGNIFICANT WEATHER AND/OR OBSTRUCTIONS TO VISIBILITY.


NDZ001>003-009>011-017-012000-
NORTHWEST NORTH DAKOTA

CITY           SKY/WX    TMP DP  RH WIND       PRES   REMARKS
WILLISTON      SUNNY     84  55  36 VRB6      29.79F
MINOT          SUNNY     78  52  40 S17G24    29.84F
MINOT AFB      SUNNY     79  56  45 S20G26    29.82F
$$

NDZ018>021-031>035-040>046-012000-
SOUTHWEST NORTH DAKOTA

CITY           SKY/WX    TMP DP  RH WIND       PRES   REMARKS
BISMARCK       PTSUNNY   73  57  57 S13       29.90F
DICKINSON      MOSUNNY   81  58  45 S17       29.85S
GARRISON         N/A     77  54  44 S16       29.85F
HETTINGER ARPT MOSUNNY   79  60  52 S14       29.89F
$$

NDZ004>008-012>016-024-026-027-054-012000-
NORTHEAST NORTH DAKOTA

CITY           SKY/WX    TMP DP  RH WIND       PRES   REMARKS
GRAND FORKS    CLOUDY    68  44  42 S21G30    30.02F
GRND FRKS AFB  PTSUNNY   69  46  43 S23G30    30.01F
DEVILS LAKE    MOSUNNY   72  50  46 S21G26    29.94F
$$

NDZ022-023-025-028>030-036>039-047>053-012000-
SOUTHEAST NORTH DAKOTA

CITY           SKY/WX    TMP DP  RH WIND       PRES   REMARKS
FARGO          PTSUNNY   69  47  45 S23G33    30.04F
JAMESTOWN      PTSUNNY   71  53  52 S16G30    29.96F
$$




USA.gov is the U.S. government's official web portal to all federal, state and local government web resources and services.